TimeHST,TemperatureF,Dew PointF,Humidity,Sea Level PressureIn,VisibilityMPH,Wind Direction,Wind SpeedMPH,Gust SpeedMPH,PrecipitationIn,Events,Conditions,WindDirDegrees,DateUTC
12:33 AM,62.6,59.0,88,30.03,10.0,West,5.8,-,N/A,,Partly Cloudy,270,2013-03-08 10:33:00
12:53 AM,62.1,59.0,90,30.02,10.0,West,4.6,-,N/A,,Partly Cloudy,260,2013-03-08 10:53:00
1:53 AM,61.0,57.9,90,30.00,10.0,WSW,5.8,-,N/A,,Clear,250,2013-03-08 11:53:00
2:53 AM,62.1,59.0,90,29.99,10.0,West,6.9,-,N/A,,Clear,280,2013-03-08 12:53:00
3:53 AM,61.0,57.9,90,29.97,10.0,WSW,4.6,-,N/A,,Clear,250,2013-03-08 13:53:00
4:53 AM,62.1,59.0,90,29.96,10.0,West,6.9,-,N/A,,Clear,280,2013-03-08 14:53:00
5:53 AM,61.0,59.0,93,29.96,10.0,West,5.8,-,N/A,,Clear,280,2013-03-08 15:53:00
6:53 AM,62.1,59.0,90,29.98,10.0,West,5.8,-,N/A,,Partly Cloudy,270,2013-03-08 16:53:00
7:53 AM,64.9,61.0,87,29.98,10.0,West,6.9,-,N/A,,Clear,280,2013-03-08 17:53:00
8:53 AM,70.0,63.0,78,29.99,10.0,West,3.5,-,N/A,,Scattered Clouds,260,2013-03-08 18:53:00
9:53 AM,73.0,63.0,71,29.99,10.0,South,9.2,-,N/A,,Mostly Cloudy,180,2013-03-08 19:53:00
10:53 AM,77.0,64.0,64,29.98,10.0,South,12.7,-,N/A,,Scattered Clouds,180,2013-03-08 20:53:00
11:53 AM,75.9,63.0,64,29.96,10.0,South,15.0,20.7,N/A,,Mostly Cloudy,180,2013-03-08 21:53:00
12:53 PM,73.9,64.0,71,29.93,10.0,South,11.5,-,N/A,,Overcast,180,2013-03-08 22:53:00
1:53 PM,77.0,63.0,62,29.91,10.0,SSW,17.3,-,N/A,,Partly Cloudy,200,2013-03-08 23:53:00
2:53 PM,77.0,63.0,62,29.88,10.0,SSW,15.0,24.2,N/A,,Partly Cloudy,200,2013-03-09 00:53:00
3:53 PM,75.0,63.0,66,29.87,10.0,SSW,13.8,-,N/A,,Partly Cloudy,200,2013-03-09 01:53:00
4:53 PM,73.9,62.1,66,29.87,10.0,SSW,12.7,21.9,N/A,,Partly Cloudy,200,2013-03-09 02:53:00
5:53 PM,73.0,63.0,71,29.88,10.0,SSW,13.8,19.6,N/A,,Scattered Clouds,200,2013-03-09 03:53:00
6:53 PM,72.0,62.1,71,29.90,10.0,SSW,10.4,-,N/A,,Mostly Cloudy,210,2013-03-09 04:53:00
7:53 PM,71.1,63.0,75,29.92,10.0,SSW,10.4,-,N/A,,Partly Cloudy,210,2013-03-09 05:53:00
8:53 PM,72.0,64.0,76,29.93,10.0,South,11.5,-,N/A,,Mostly Cloudy,190,2013-03-09 06:53:00
9:53 PM,72.0,63.0,73,29.93,10.0,SSW,13.8,19.6,N/A,,Mostly Cloudy,200,2013-03-09 07:53:00
10:53 PM,72.0,63.0,73,29.93,10.0,SSW,12.7,19.6,0.00,,Mostly Cloudy,210,2013-03-09 08:53:00
11:53 PM,71.1,61.0,70,29.92,10.0,WSW,18.4,27.6,0.00,,Mostly Cloudy,240,2013-03-09 09:53:00